Location: Newark
(45.4422°N, 16.2769°E)
Time: 11:16:49
(UTC+00:00)

Vanguard 2 - Pass Details

Date: 13 December 2019
Orbit: 553 x 2938 km, 32.9° (Epoch: 21 January)

Event Time Altitude Azimuth Distance (km) Brightness Sun altitude
Rises 20:23:05 0° 174° (S) 4,944 - -53.0°
Reaches altitude 10° 20:29:46 10° 145° (SE) 4,573 - -54.1°
Maximum altitude 20:33:26 12° 128° (SE) 4,731 - -54.6°
Drops below altitude 10° 20:37:28 10° 112° (ESE) 5,145 - -55.3°
Sets 20:46:36 0° 87° (E) 6,614 - -56.7°
